Weather in Švenčionys

Lithuania     55°07′53″N   26°09′46″E
temp.,
°C
wind,
m/s
gust,
m/s
humid.,
%
clouds,
%
prec.,
mm/h
press.,
hPa
HPBL,
m
26 july, mon
mon2600:00+17ese22623 0.0 101913
03:00+17ese2358100 0.0 101956
06:00+17se226493 0.0 102041
09:00+22se2360100 0.0 1020300
12:00+26se3447100 0.0 10201460
15:00+27se3540100 0.0 10192588
18:00+23ene3560100 0.0 1018113
21:00+22ese346346 0.0 101892
27 july, tue
tue2700:00+18se357367 0.0 101986
03:00+16se397881 0.0 1018168
06:00+17ese398086 0.0 1018205
09:00+18ese51187100 0.3 1017305
12:00+19ese61284100 0.3 1016480
15:00+22ese61172100 0.4 1015694
18:00+25ese7115888 0.1 10131187
21:00+19ese51290100 1.8 1011389
28 july, wed
wed2800:00+18se3799100 5.3 1011248
03:00+17sse2599100 5.5 1010255
06:00+18wsw379829 0.1 1010304
09:00+19w5993100 0.1 1010590
12:00+23w597098 0.1 10111074
15:00+26w794929 0.1 10102138
18:00+23wsw4962100 0.0 1010431
21:00+20w378156 0.4 1010128
29 july, thu
thu2900:00+17w399110 0.0 1011163
03:00+15wsw379547 0.0 1011131
06:00+15wsw379151 0.0 1011144
09:00+20w510677 0.0 1011577
12:00+24wsw57525 0.0 10111184
15:00+24w465687 0.0 10111452
18:00+23w4659100 0.1 1010761
21:00+20w22761 0.1 101022
30 july, fri
fri3000:00+17sw238636 0.0 101146
03:00+16sw23938 0.0 101043
06:00+15ssw349157 0.0 101077
09:00+21ssw477199 0.0 1009381
12:00+26sw694626 0.0 10082341
15:00+25ssw4752100 0.0 10071154
18:00+26ssw585387 0.0 10061647
21:00+23ssw51261100 0.2 1005842